Location: ?????
(37.7324°N, 23.9257°E)
Time: 07:29:37
(UTC+00:00)

Cosmos 1408 Rocket - Pass Details

Date: 29 November 2020
Orbit: 600 x 631 km, 82.6° (Epoch: 17 January)

Event Time Altitude Azimuth Distance (km) Brightness Sun altitude
Rises 03:15:51 0° 181° (S) 2,907 7.1 -23.9°
Reaches altitude 10° 03:18:05 10° 180° (S) 2,004 6.3 -23.5°
Maximum altitude 03:22:31 74° 95° (E) 659 3.7 -22.6°
Drops below altitude 10° 03:26:58 10° 11° (N) 2,013 6.2 -21.7°
Sets 03:29:13 0° 10° (N) 2,922 7.0 -21.3°
